| time (UTC) | temp F | wind direction | speed knots | gust knots | rain 1hr in | rain 24hr in | rain mn in | humidity % | barometer mb |
| 20260507160059 | 56 | 0 | 0.0 | 0.9 | 0.00 | 0.02 | 0.02 | 63 | 1011.2 |
| 20260507154606 | 56 | 0 | 0.0 | 0.0 | 0.00 | 0.04 | 0.02 | 66 | 1011.4 |
| 20260507153102 | 56 | 0 | 0.0 | 0.0 | 0.00 | 0.04 | 0.02 | 65 | 1011.6 |
| 20260507151600 | 55 | 0 | 0.0 | 0.0 | 0.00 | 0.04 | 0.02 | 66 | 1011.6 |
| 20260507150100 | 55 | 0 | 0.0 | 0.0 | 0.00 | 0.04 | 0.02 | 70 | 1011.7 |
| 20260507144600 | 54 | 0 | 0.0 | 0.0 | 0.00 | 0.08 | 0.02 | 71 | 1011.9 |
| 20260507143111 | 53 | 0 | 0.0 | 0.0 | 0.00 | 0.08 | 0.02 | 74 | 1012.1 |
| 20260507141559 | 53 | 0 | 0.0 | 0.0 | 0.00 | 0.08 | 0.02 | 72 | 1012.3 |
| 20260507134600 | 54 | 0 | 0.0 | 0.0 | 0.00 | 0.24 | 0.02 | 77 | 1012.5 |
| 20260507133109 | 53 | 0 | 0.0 | 0.0 | 0.00 | 0.24 | 0.02 | 75 | 1012.6 |
| 20260507131612 | 53 | 0 | 0.0 | 0.0 | 0.00 | 0.24 | 0.02 | 73 | 1012.2 |
| 20260507130059 | 53 | 0 | 0.0 | 0.9 | 0.00 | 0.24 | 0.02 | 75 | 1012.2 |
| 20260507124603 | 53 | 0 | 0.0 | 0.0 | 0.00 | 0.28 | 0.02 | 76 | 1012.4 |
| 20260507123059 | 53 | 0 | 0.0 | 0.0 | 0.00 | 0.28 | 0.02 | 79 | 1012.4 |
| 20260507121601 | 53 | 0 | 0.0 | 0.0 | 0.00 | 0.28 | 0.02 | 80 | 1012.2 |
| 20260507120100 | 53 | 0 | 0.0 | 1.7 | 0.00 | 0.28 | 0.02 | 79 | 1012.2 |
| 20260507114607 | 53 | 0 | 0.0 | 0.9 | 0.00 | 0.28 | 0.02 | 82 | 1012.1 |
| 20260507113102 | 53 | 0 | 0.0 | 0.0 | 0.00 | 0.28 | 0.02 | 83 | 1011.9 |
| 20260507111559 | 53 | 0 | 0.0 | 0.0 | 0.00 | 0.28 | 0.02 | 84 | 1011.9 |
| 20260507110059 | 53 | 0 | 0.0 | 0.0 | 0.00 | 0.28 | 0.02 | 86 | 1011.8 |
| 20260507104558 | 53 | 0 | 0.0 | 0.0 | 0.00 | 0.28 | 0.02 | 87 | 1011.8 |
| 20260507103058 | 53 | 0 | 0.0 | 0.0 | 0.00 | 0.28 | 0.02 | 88 | 1011.6 |
| 20260507101601 | 53 | 0 | 0.0 | 0.0 | 0.00 | 0.28 | 0.02 | 88 | 1011.6 |
| 20260507100059 | 54 | 0 | 0.0 | 0.0 | 0.00 | 0.28 | 0.02 | 88 | 1011.4 |
| 20260507094601 | 54 | 0 | 0.0 | 0.0 | 0.00 | 0.28 | 0.02 | 89 | 1011.5 |
| 20260507093113 | 54 | 0 | 0.0 | 0.0 | 0.00 | 0.28 | 0.02 | 89 | 1011.4 |
| 20260507091600 | 54 | 0 | 0.0 | 0.0 | 0.00 | 0.28 | 0.02 | 89 | 1010.9 |
| 20260507090059 | 54 | 0 | 0.0 | 0.0 | 0.00 | 0.28 | 0.02 | 89 | 1011.1 |
| 20260507084602 | 54 | 0 | 0.0 | 0.0 | 0.00 | 0.28 | 0.02 | 89 | 1011.2 |
| 20260507083102 | 54 | 0 | 0.0 | 0.0 | 0.00 | 0.28 | 0.02 | 89 | 1011.2 |
| 20260507081612 | 54 | 0 | 0.0 | 0.0 | 0.00 | 0.28 | 0.02 | 89 | 1011.0 |
| 20260507080114 | 54 | 0 | 0.0 | 0.0 | 0.00 | 0.28 | 0.02 | 89 | 1010.5 |
| 20260507074600 | 54 | 0 | 0.0 | 0.0 | 0.00 | 0.28 | 0.02 | 88 | 1010.5 |
| 20260507073059 | 54 | 0 | 0.0 | 0.0 | 0.00 | 0.28 | 0.02 | 89 | 1010.3 |
| 20260507071611 | 54 | 0 | 0.0 | 0.9 | 0.00 | 0.28 | 0.02 | 89 | 1010.4 |
| 20260507070100 | 55 | 0 | 0.0 | 0.0 | 0.00 | 0.28 | 0.02 | 89 | 1010.4 |
| 20260507064559 | 55 | 0 | 0.0 | 0.0 | 0.00 | 0.28 | 0.02 | 89 | 1010.5 |
| 20260507063058 | 55 | 0 | 0.0 | 0.0 | 0.00 | 0.28 | 0.02 | 90 | 1010.6 |
| 20260507061602 | 55 | 0 | 0.0 | 0.0 | 0.00 | 0.28 | 0.02 | 89 | 1010.4 |
| 20260507060100 | 55 | 0 | 0.0 | 0.0 | 0.00 | 0.28 | 0.02 | 90 | 1010.3 |
| 20260507054602 | 56 | 0 | 0.0 | 0.9 | 0.01 | 0.28 | 0.02 | 89 | 1010.5 |
| 20260507053127 | 56 | 0 | 0.0 | 0.0 | 0.01 | 0.28 | 0.02 | 88 | 1010.7 |
| 20260507051606 | 56 | 0 | 0.0 | 0.9 | 0.01 | 0.28 | 0.02 | 88 | 1010.1 |
| 20260507050100 | 57 | 0 | 0.0 | 0.9 | 0.02 | 0.28 | 0.02 | 87 | 1010.4 |
| 20260507044601 | 58 | 0 | 0.0 | 0.0 | 0.01 | 0.27 | 0.01 | 86 | 1010.6 |
| 20260507043100 | 58 | 0 | 0.0 | 0.9 | 0.01 | 0.27 | 0.01 | 85 | 1010.6 |
| 20260507041558 | 59 | 0 | 0.0 | 0.0 | 0.01 | 0.27 | 0.01 | 84 | 1010.6 |
| 20260507040105 | 60 | 0 | 0.0 | 0.0 | 0.00 | 0.26 | 0.00 | 84 | 1010.4 |
| 20260507034558 | 60 | 0 | 0.0 | 0.9 | 0.00 | 0.26 | 0.26 | 83 | 1010.0 |
| 20260507033102 | 61 | 0 | 0.0 | 0.9 | 0.00 | 0.26 | 0.26 | 81 | 1010.2 |
| 20260507031558 | 62 | 0 | 0.0 | 0.9 | 0.00 | 0.26 | 0.26 | 80 | 1010.2 |
| 20260507030101 | 62 | 0 | 0.0 | 0.0 | 0.00 | 0.26 | 0.26 | 80 | 1009.8 |
| 20260507024605 | 62 | 0 | 0.0 | 2.6 | 0.00 | 0.26 | 0.26 | 81 | 1009.6 |
| 20260507023058 | 63 | 0 | 0.0 | 1.7 | 0.00 | 0.26 | 0.26 | 83 | 1009.7 |
| 20260507021559 | 64 | 0 | 0.0 | 0.0 | 0.00 | 0.26 | 0.26 | 84 | 1009.3 |
| 20260507020059 | 64 | 0 | 0.0 | 0.9 | 0.00 | 0.26 | 0.26 | 85 | 1009.2 |
| 20260507014619 | 65 | 0 | 0.0 | 0.9 | 0.00 | 0.26 | 0.26 | 87 | 1009.0 |
| 20260507013100 | 65 | 0 | 0.0 | 0.0 | 0.00 | 0.26 | 0.26 | 88 | 1009.2 |
| 20260507011609 | 65 | 0 | 0.0 | 0.0 | 0.00 | 0.26 | 0.26 | 90 | 1009.3 |
| 20260507010112 | 65 | 0 | 0.0 | 0.0 | 0.00 | 0.26 | 0.26 | 89 | 1009.1 |
| 20260507004615 | 66 | 0 | 0.0 | 0.0 | 0.00 | 0.26 | 0.26 | 89 | 1009.0 |
| 20260507003059 | 66 | 0 | 0.0 | 0.0 | 0.00 | 0.26 | 0.26 | 88 | 1008.9 |
| 20260507001558 | 66 | 0 | 0.0 | 0.0 | 0.00 | 0.26 | 0.26 | 86 | 1008.7 |
| 20260506234600 | 67 | 0 | 0.0 | 0.0 | 0.00 | 0.26 | 0.26 | 84 | 1008.5 |
| 20260506233059 | 68 | 0 | 0.0 | 0.0 | 0.00 | 0.26 | 0.26 | 83 | 1008.2 |
| 20260506231602 | 68 | 0 | 0.0 | 0.9 | 0.00 | 0.26 | 0.26 | 82 | 1008.2 |
| 20260506230104 | 68 | 0 | 0.0 | 0.0 | 0.00 | 0.26 | 0.26 | 81 | 1008.0 |
| 20260506224558 | 68 | 0 | 0.0 | 0.9 | 0.00 | 0.26 | 0.26 | 81 | 1007.9 |
| 20260506223103 | 68 | 0 | 0.0 | 2.6 | 0.00 | 0.26 | 0.26 | 80 | 1007.8 |
| 20260506221600 | 69 | 0 | 0.0 | 4.3 | 0.00 | 0.26 | 0.26 | 79 | 1007.8 |
| 20260506220059 | 70 | 0 | 0.0 | 0.9 | 0.00 | 0.26 | 0.26 | 80 | 1007.7 |
| 20260506214604 | 70 | 0 | 0.0 | 0.9 | 0.00 | 0.26 | 0.26 | 80 | 1007.8 |
| 20260506213059 | 69 | 0 | 0.0 | 2.6 | 0.00 | 0.26 | 0.26 | 80 | 1007.8 |
| 20260506211605 | 69 | 159 | 0.0 | 3.5 | 0.00 | 0.26 | 0.26 | 79 | 1007.7 |
| 20260506210101 | 69 | 0 | 0.0 | 2.6 | 0.00 | 0.26 | 0.26 | 81 | 1007.4 |
| 20260506204600 | 69 | 0 | 0.0 | 1.7 | 0.00 | 0.26 | 0.26 | 80 | 1007.1 |
| 20260506203100 | 69 | 0 | 0.0 | 2.6 | 0.00 | 0.26 | 0.26 | 80 | 1007.3 |
| 20260506201558 | 69 | 0 | 0.0 | 2.6 | 0.00 | 0.26 | 0.26 | 80 | 1007.6 |
| 20260506200106 | 69 | 0 | 0.0 | 2.6 | 0.00 | 0.26 | 0.26 | 80 | 1007.6 |
| 20260506194606 | 69 | 0 | 0.0 | 3.5 | 0.00 | 0.26 | 0.26 | 81 | 1007.5 |
| 20260506193101 | 68 | 0 | 0.0 | 6.1 | 0.00 | 0.26 | 0.26 | 81 | 1007.5 |
| 20260506191608 | 68 | 0 | 0.0 | 6.1 | 0.00 | 0.26 | 0.26 | 81 | 1007.7 |
| 20260506190058 | 67 | 0 | 0.0 | 4.3 | 0.00 | 0.26 | 0.26 | 82 | 1007.8 |
| 20260506184601 | 67 | 0 | 0.0 | 1.7 | 0.00 | 0.26 | 0.26 | 83 | 1007.9 |
| 20260506183113 | 66 | 0 | 0.0 | 2.6 | 0.00 | 0.26 | 0.26 | 82 | 1007.9 |
| 20260506181603 | 66 | 0 | 0.0 | 0.9 | 0.00 | 0.26 | 0.26 | 83 | 1008.3 |
| 20260506180116 | 66 | 0 | 0.0 | 2.6 | 0.00 | 0.26 | 0.26 | 84 | 1008.2 |
| 20260506174557 | 65 | 0 | 0.0 | 4.3 | 0.00 | 0.26 | 0.26 | 85 | 1008.3 |
| 20260506173137 | 64 | 0 | 0.0 | 4.3 | 0.00 | 0.26 | 0.26 | 86 | 1008.3 |
| 20260506171600 | 64 | 0 | 0.0 | 2.6 | 0.00 | 0.26 | 0.26 | 86 | 1008.5 |
| 20260506170100 | 64 | 0 | 0.0 | 7.0 | 0.00 | 0.26 | 0.26 | 87 | 1008.7 |
| 20260506164559 | 63 | 0 | 0.0 | 5.2 | 0.00 | 0.26 | 0.26 | 88 | 1008.5 |
| 20260506163105 | 63 | 0 | 0.0 | 2.6 | 0.00 | 0.26 | 0.26 | 90 | 1008.4 |
| 20260506161558 | 62 | 259 | 0.9 | 7.8 | 0.00 | 0.26 | 0.26 | 90 | 1008.7 |